[[[{"header":{"parameterUnit":"kt","parameterCategory":2,"dx":1,"dy":1,"la1":30.253999710083008,"la2":30.299108505249023,"lo1":-89.0895004272461,"lo2":-89.04439544677734,"nx":28,"ny":28,"refTime":"2022-09-20T15:00:00:Z","depth":"0","parameterNumber":2,"parameterNumberName":"U-component_of_CURRENTS"},"data":[0.4989,0.4951,0.4976,0.484,0.4807,0.4654,0.4593,0.4578,0.4722,0.4983,0.5345,0.5702,0.6713,0.8007,0.8709,0.8804,0.829,0.811,0.7895,0.8562,0.8539,0.8517,0.8318,0.8725,0.8725,0.6873,0.686,0.6851,0.5082,0.5071,0.5135,0.504,0.4999,0.5016,0.5,0.4924,0.4943,0.5253,0.5451,0.63,0.7153,0.7972,0.9003,0.9088,0.8765,0.9039,0.8155,0.8105,0.8926,0.8757,0.9264,0.9264,0.9264,0.9264,0.9264,0.9264,0.5094,0.5165,0.5059,0.5089,0.5083,0.5041,0.5032,0.5035,0.5166,0.5322,0.5633,0.5979,0.6906,0.8015,0.837,0.9033,0.8611,0.8972,0.8847,0.8199,0.7954,0.8568,0.9314,0.9312,0.9311,0.931,0.9309,0,0.4931,0.4948,0.4906,0.4926,0.4924,0.4955,0.4949,0.5072,0.5106,0.5357,0.5606,0.5881,0.6762,0.735,0.8101,0.8498,0.8208,0.8667,0.8465,0.8242,0.7402,0.7244,0.7769,0.8659,0.8654,0.865,0.8647,0.8645,0.4618,0.47,0.4647,0.463,0.4574,0.4668,0.4701,0.4747,0.4858,0.521,0.5371,0.5914,0.6258,0.7159,0.7648,0.8252,0.7831,0.8532,0.8269,0.7952,0.7742,0.7029,0.691,0.8589,0.8596,0.8602,0.8607,0,0.4439,0.426,0.4337,0.4236,0.4227,0.437,0.4387,0.4553,0.4732,0.5063,0.519,0.5536,0.6077,0.6443,0.7043,0.7186,0.7546,0.7791,0.7693,0.7675,0.7694,0.7507,0.7632,0.7567,0.8309,0.8315,0.832,0,0.4021,0.4071,0.3855,0.3886,0.4058,0.3915,0.4197,0.4281,0.4504,0.4781,0.4975,0.5288,0.5652,0.6079,0.6298,0.6855,0.6965,0.7007,0.7006,0.6975,0.6959,0.6881,0.6686,0.7098,0.7093,0.7088,0.7084,0,0.3765,0.3646,0.3692,0.3663,0.3602,0.3686,0.3696,0.3946,0.4118,0.4495,0.4692,0.5186,0.5407,0.5808,0.604,0.5867,0.6712,0.6471,0.6724,0.6718,0.6903,0.6887,0.746,0.7077,0.7075,0.7074,0.7072,0,0.3424,0.3346,0.3379,0.3356,0.3368,0.3413,0.3656,0.3729,0.4064,0.4181,0.4503,0.4625,0.5083,0.4892,0.5571,0.5292,0.5485,0.5606,0.5631,0.5671,0.5349,0.5982,0.6589,0.6395,0.5698,0.5686,0.5676,0,0.3243,0.32,0.3076,0.3137,0.3153,0.3098,0.3224,0.3369,0.349,0.3746,0.3959,0.4205,0.4131,0.4238,0.4527,0.4711,0.5043,0.4618,0.5126,0.5143,0.5182,0.5719,0.5787,0.6393,0.5533,0.5548,0.5559,0,0.3145,0.2933,0.2952,0.2942,0.2862,0.2897,0.2976,0.3141,0.3324,0.3372,0.3661,0.3838,0.3934,0.4003,0.401,0.4271,0.4785,0.4162,0.4171,0.4458,0.5477,0.5505,0.5604,0.475,0.4768,0.4782,0.5444,0,0.2902,0.2873,0.2867,0.2809,0.2804,0.2816,0.2813,0.2863,0.2865,0.2956,0.3219,0.3251,0.3433,0.3422,0.3384,0.3827,0.3774,0.366,0.3603,0.388,0.4104,0.4195,0.3053,0.3048,0.3044,0.3041,0,0,0.2868,0.2824,0.2739,0.2708,0.2707,0.2638,0.266,0.2685,0.267,0.2789,0.2668,0.2894,0.288,0.3191,0.3254,0.3163,0.3307,0.3171,0.3651,0.3718,0.3781,0.4017,0.4108,0.3033,0.3032,0.303,0.3029,0,0.2796,0.2737,0.2729,0.2691,0.263,0.2612,0.261,0.2557,0.2591,0.2622,0.2635,0.2761,0.2718,0.2865,0.291,0.3081,0.3136,0.3017,0.3287,0.3603,0.3675,0.374,0.3985,0.407,0.3019,0.302,0.302,0,0.2732,0.2672,0.2665,0.2606,0.2563,0.256,0.2499,0.2485,0.2534,0.2448,0.2507,0.2523,0.2542,0.2647,0.268,0.2615,0.3006,0.2732,0.2751,0.2883,0.321,0.3288,0.3358,0.2483,0.2482,0.2481,0,0,0.2687,0.2661,0.2593,0.2589,0.2564,0.2504,0.2492,0.2469,0.2451,0.2449,0.2435,0.244,0.2508,0.252,0.2544,0.2599,0.2744,0.2675,0.27,0.2721,0.2862,0.3192,0.3265,0.2477,0.2477,0.2477,0,0,0.2677,0.2589,0.255,0.2539,0.2511,0.2455,0.2458,0.2427,0.2427,0.242,0.2391,0.2391,0.2482,0.2426,0.2382,0.2543,0.2427,0.2434,0.2609,0.2639,0.2663,0.2841,0.2333,0,0,0,0,0,0.258,0.2594,0.2558,0.2546,0.2474,0.2459,0.2453,0.2424,0.2388,0.2409,0.24,0.2364,0.242,0.238,0.2375,0.2494,0.243,0.2439,0.2447,0.2684,0.2716,0.2744,0,0,0,0,0,0,0.2575,0.256,0.2558,0.2497,0.2481,0.2457,0.2413,0.2405,0.2388,0.2387,0.2365,0.2363,0.2349,0.2379,0.2375,0.2491,0.2334,0.2434,0.2441,0.2447,0.2695,0.2722,0.2744,0,0,0,0,0,0.2571,0.2558,0.2451,0.2497,0.2483,0.2441,0.2414,0.2407,0.2396,0.2369,0.2366,0.2377,0.2349,0.2346,0.2376,0.2496,0.2336,0.2335,0.2438,0.2444,0.2449,0.2708,0,0,0,0,0,0,0.2568,0.2554,0.2448,0.2443,0.2503,0.2444,0.2434,0.2409,0.238,0.2375,0.2381,0.238,0.2349,0.2346,0.2344,0.2503,0.2338,0.2337,0.2336,0.2443,0.2447,0.2451,0,0,0,0,0,0,0.256,0.255,0.2445,0.2454,0.245,0.2447,0.2438,0.2425,0.2381,0.2393,0.2391,0.2381,0.2363,0.2347,0.2345,0.2326,0.2339,0.2338,0.2337,0.2337,0.2446,0.245,0,0,0,0,0,0,0.2556,0.2546,0.2455,0.2452,0.2448,0.239,0.2438,0.2374,0.2364,0.2396,0.2365,0.2366,0.2365,0.2362,0.2346,0.2327,0.2326,0.2339,0.2338,0.2338,0.2337,0,0,0,0,0,0,0,0.2552,0.2618,0.2477,0.245,0.2447,0.2396,0.2395,0.2393,0.2364,0.2365,0.2365,0.2365,0.2345,0.2344,0.2343,0.2328,0,0,0.2339,0.2339,0,0,0,0,0,0,0,0,0.2621,0.2619,0.2477,0.2476,0.2475,0.2396,0.2395,0.2394,0.2364,0.2365,0.2365,0.2365,0.2345,0.2344,0.2343,0,0,0,0,0,0,0,0,0,0,0,0,0,0,0,0.2477,0.2476,0,0.2396,0.2395,0.2394,0.2364,0.2365,0.2365,0.2365,0.2344,0.2344,0.2343,0,0,0,0,0,0,0,0,0,0,0,0,0,0,0,0,0,0,0,0,0,0,0,0,0,0,0,0,0,0,0,0,0,0,0,0,0,0,0,0,0,0,0,0,0,0,0,0,0,0,0,0,0,0,0,0,0,0,0,0,0,0,0,0,0,0,0,0,0]}],[{"header":{"parameterUnit":"kt","parameterCategory":2,"dx":1,"dy":1,"la1":30.253999710083008,"la2":30.299108505249023,"lo1":-89.0895004272461,"lo2":-89.04439544677734,"nx":28,"ny":28,"refTime":"2022-09-20T15:00:00:Z","depth":"0","parameterNumber":3,"parameterNumberName":"V-component_of_CURRENTS"},"data":[0.1579,0.171,0.1803,0.2175,0.2373,0.2709,0.2924,0.3228,0.3583,0.418,0.4615,0.4979,0.5103,0.3207,0.1798,0.1349,0.0549,0.0372,-0.0126,0.0618,0.066,0.07,0.0638,0.0284,0.0282,-0.0987,-0.0998,-0.1007,0.1564,0.164,0.1849,0.2066,0.2332,0.245,0.2873,0.3096,0.3449,0.3907,0.4184,0.4577,0.4108,0.3563,0.2756,0.1876,0.1406,0.1353,0.1093,0.0929,0.191,0.1901,0.181,0.181,0.181,0.1811,0.1811,0.1812,0.1477,0.1572,0.1649,0.187,0.2112,0.2416,0.2659,0.298,0.3364,0.3831,0.3967,0.4262,0.4155,0.3593,0.2993,0.2217,0.2106,0.1968,0.1769,0.1558,0.1313,0.234,0.2351,0.2349,0.2347,0.2346,0.2344,0,0.1363,0.1378,0.1493,0.1687,0.1902,0.2204,0.254,0.2765,0.3182,0.3485,0.3822,0.3977,0.3827,0.3621,0.3111,0.2788,0.2145,0.2391,0.1963,0.1894,0.1619,0.1277,0.2289,0.2501,0.25,0.2499,0.2498,0.2497,0.1185,0.1257,0.1438,0.1551,0.165,0.1953,0.2204,0.2539,0.2821,0.3313,0.3509,0.364,0.3794,0.3437,0.3031,0.2645,0.2203,0.2383,0.2293,0.1873,0.153,0.1273,0.1076,0.2484,0.2485,0.2487,0.2488,0,0.1098,0.1107,0.13,0.1508,0.1601,0.1821,0.2219,0.2502,0.2783,0.3186,0.3299,0.3533,0.351,0.3308,0.3027,0.2741,0.2273,0.2315,0.2477,0.2359,0.1762,0.1551,0.1314,0.1083,0.2114,0.2112,0.2111,0,0.0973,0.1115,0.1195,0.1277,0.1571,0.1724,0.2098,0.2315,0.265,0.2975,0.3105,0.3332,0.3168,0.3112,0.2831,0.2564,0.2648,0.2224,0.2082,0.221,0.2203,0.1779,0.1551,0.2297,0.2298,0.2298,0.2298,0,0.0844,0.1015,0.1155,0.1223,0.1468,0.1636,0.1817,0.2146,0.2381,0.2703,0.2882,0.3049,0.3085,0.2951,0.2664,0.2584,0.2516,0.2324,0.2053,0.2037,0.209,0.207,0.2017,0.2298,0.2298,0.2299,0.2299,0,0.076,0.0816,0.0982,0.1243,0.1305,0.1453,0.1819,0.2003,0.2313,0.2428,0.2627,0.2638,0.2794,0.2552,0.2516,0.2469,0.2246,0.2078,0.2068,0.1893,0.157,0.1698,0.2006,0.1608,0.1791,0.1788,0.1786,0,0.065,0.0758,0.0792,0.1009,0.1101,0.1195,0.1416,0.1608,0.1746,0.1972,0.2033,0.2189,0.205,0.2085,0.2117,0.1941,0.1967,0.1909,0.1625,0.1619,0.1522,0.181,0.1969,0.196,0.1752,0.1756,0.1758,0,0.0553,0.0602,0.0622,0.0705,0.0799,0.0885,0.1083,0.1287,0.147,0.1527,0.1773,0.1839,0.1825,0.1833,0.1743,0.1761,0.1887,0.1541,0.1531,0.1534,0.1862,0.1765,0.1777,0.1746,0.1753,0.1758,0.1731,0,0.0479,0.0526,0.0559,0.0612,0.0685,0.076,0.0834,0.093,0.096,0.1033,0.1226,0.1173,0.1259,0.1233,0.1156,0.1364,0.1232,0.1084,0.0953,0.1182,0.1125,0.1148,0.0779,0.0772,0.0766,0.0762,0,0,0.0391,0.0418,0.0372,0.0419,0.048,0.0435,0.0532,0.0587,0.0616,0.0716,0.0607,0.0733,0.0658,0.0859,0.0932,0.0849,0.0788,0.0851,0.1049,0.1082,0.1112,0.1073,0.1101,0.0752,0.075,0.0748,0.0746,0,0.0342,0.0323,0.0345,0.0371,0.0376,0.0388,0.0403,0.0405,0.0437,0.0536,0.0451,0.0502,0.0495,0.0531,0.0535,0.0757,0.0595,0.0708,0.1003,0.0999,0.104,0.1074,0.1045,0.1075,0.0732,0.0733,0.0734,0,0.0264,0.0242,0.0246,0.0251,0.0246,0.031,0.02,0.0229,0.032,0.0151,0.026,0.0209,0.0158,0.0261,0.0285,0.0208,0.0419,0.0333,0.036,0.0444,0.0432,0.0478,0.052,-0.0011,-0.0013,-0.0014,0,0,0.0225,0.0228,0.0208,0.0238,0.0241,0.0208,0.0214,0.0184,0.0171,0.016,0.0125,0.0092,0.0111,0.0113,0.0101,0.0191,0.0132,0.0254,0.0289,0.0319,0.0417,0.0415,0.0459,-0.0019,-0.0019,-0.0019,0,0,0.0204,0.0162,0.0134,0.0159,0.017,0.0143,0.0163,0.0126,0.0121,0.01,0.0006,-0.001,0.006,-0.0016,-0.0071,0.0071,-0.0089,-0.0079,0.0162,0.0204,0.0237,0.0365,-0.022,0,0,0,0,0,0.0138,0.0173,0.0149,0.0148,0.0132,0.0166,0.0165,0.0105,0.0045,0.0073,0.0034,-0.0068,-0.0055,-0.0105,-0.0113,0.0003,-0.0085,-0.0073,-0.0062,0.0265,0.031,0.0348,0,0,0,0,0,0,0.0137,0.0136,0.0148,0.0122,0.0118,0.0163,0.0059,0.0045,0.004,0.0026,-0.0051,-0.007,-0.0137,-0.0109,-0.0115,-0.0,-0.0218,-0.008,-0.007,-0.0061,0.028,0.0317,0.0349,0,0,0,0,0,0.0137,0.0136,0.0119,0.0121,0.0118,0.0057,0.0055,0.0042,0.0033,-0.0048,-0.0068,-0.0015,-0.0133,-0.0145,-0.0113,0.0006,-0.0215,-0.0217,-0.0074,-0.0066,-0.0059,0.0299,0,0,0,0,0,0,0.0136,0.0129,0.0117,0.0115,0.0081,0.0053,0.0043,0.004,-0.0043,-0.0059,-0.0017,-0.0027,-0.0129,-0.0139,-0.0147,0.0017,-0.0213,-0.0215,-0.0216,-0.0068,-0.0062,-0.0056,0,0,0,0,0,0,0.013,0.0128,0.0116,0.0068,0.006,0.005,0.0041,0.0039,-0.0045,-0.0009,-0.0019,-0.0021,-0.0139,-0.0134,-0.0141,-0.0138,-0.0211,-0.0213,-0.0214,-0.0214,-0.0063,-0.0058,0,0,0,0,0,0,0.0128,0.0127,0.0068,0.0062,0.0055,0.0026,0.0045,0.0016,-0.0039,-0.0006,-0.0051,-0.0057,-0.0134,-0.0141,-0.0136,-0.0129,-0.0136,-0.0211,-0.0212,-0.0213,-0.0213,0,0,0,0,0,0,0,0.0127,0.0145,0.013,0.0057,0.005,0.0096,0.0095,0.0095,-0.004,-0.0045,-0.005,-0.0054,-0.0203,-0.0204,-0.0206,-0.0122,0,0,-0.0211,-0.0212,0,0,0,0,0,0,0,0,0.0145,0.0145,0.013,0.0129,0.0129,0.0096,0.0095,0.0095,-0.0041,-0.0045,-0.0049,-0.0052,-0.0203,-0.0204,-0.0206,0,0,0,0,0,0,0,0,0,0,0,0,0,0,0,0.013,0.0129,0,0.0096,0.0095,0.0095,-0.0042,-0.0045,-0.0048,-0.0051,-0.0203,-0.0204,-0.0206,0,0,0,0,0,0,0,0,0,0,0,0,0,0,0,0,0,0,0,0,0,0,0,0,0,0,0,0,0,0,0,0,0,0,0,0,0,0,0,0,0,0,0,0,0,0,0,0,0,0,0,0,0,0,0,0,0,0,0,0,0,0,0,0,0,0,0,0,0]}]],[[{"header":{"parameterUnit":"kt","parameterCategory":2,"dx":1,"dy":1,"la1":30.253999710083008,"la2":30.299108505249023,"lo1":-89.0895004272461,"lo2":-89.04439544677734,"nx":28,"ny":28,"refTime":"2022-09-20T15:00:00:Z","depth":"2","parameterNumber":2,"parameterNumberName":"U-component_of_CURRENTS"},"data":[0.1486,0.1545,0.1613,0.175,0.1907,0.2062,0.2169,0.2178,0.2207,0.2124,0.2094,0.2241,0.242,0.201,0.2016,0.1935,0.21,0.1816,0.2728,0.2562,0.2614,0.279,0.2553,0,0,0,0,0,0.1529,0.1641,0.1726,0.191,0.2014,0.2178,0.2361,0.2393,0.2541,0.2667,0.2844,0.2547,0.2545,0.273,0.2511,0.2487,0.2353,0.2468,0.2289,0.2349,0.2403,0.221,0.1811,0.1809,0.1807,0.1805,0,0,0.1658,0.1702,0.1855,0.1996,0.2142,0.2293,0.2379,0.2565,0.2732,0.2935,0.32,0.3291,0.3343,0.3254,0.3282,0.3244,0.3427,0.3234,0.3249,0.3273,0.3129,0.3025,0.297,0.2975,0.298,0.2984,0.2988,0,0.179,0.188,0.1973,0.2137,0.226,0.2405,0.2584,0.266,0.2934,0.3093,0.3375,0.354,0.379,0.3714,0.384,0.3799,0.3759,0.3693,0.4307,0.3206,0.3099,0.3095,0.3109,0.3084,0.309,0.3095,0.3098,0.3101,0.1944,0.1992,0.2208,0.2281,0.2366,0.2512,0.2611,0.2822,0.2931,0.3258,0.3333,0.365,0.3816,0.4119,0.4068,0.4163,0.4353,0.3838,0.3581,0.401,0.4011,0.3995,0.3979,0.3168,0.3159,0.3152,0.3147,0,0.2019,0.2156,0.2259,0.2454,0.2519,0.2587,0.2798,0.288,0.3046,0.3209,0.3266,0.3497,0.3754,0.3925,0.4145,0.4065,0.4191,0.4224,0.3776,0.3736,0.3994,0.3976,0.415,0.4149,0.4148,0.4148,0.4147,0,0.2155,0.2223,0.2416,0.2457,0.2562,0.2702,0.2812,0.2912,0.3073,0.3188,0.3299,0.3427,0.3568,0.3756,0.3826,0.3965,0.4055,0.393,0.3949,0.3571,0.3531,0.3927,0.3912,0.4044,0.4043,0.4041,0.404,0,0.2186,0.2352,0.2442,0.2495,0.2667,0.2731,0.2829,0.2965,0.3048,0.3194,0.3263,0.3399,0.3514,0.3605,0.3772,0.369,0.3996,0.3902,0.3902,0.3897,0.3586,0.3548,0.4038,0.4038,0.4038,0.4037,0.4037,0,0.2264,0.2354,0.2461,0.2616,0.2648,0.272,0.2862,0.295,0.3084,0.3134,0.323,0.3294,0.3442,0.3408,0.3619,0.3549,0.3624,0.3691,0.37,0.3644,0.3617,0.335,0.3378,0.3777,0.3775,0.3772,0.377,0,0.2267,0.2381,0.2457,0.2564,0.2629,0.2716,0.2804,0.2895,0.2967,0.3055,0.3144,0.3255,0.3255,0.3312,0.338,0.3505,0.3574,0.3473,0.3653,0.3659,0.3553,0.3657,0.3236,0.3356,0.3738,0.3742,0.3744,0,0.2257,0.2405,0.2413,0.2475,0.259,0.2637,0.2731,0.2835,0.2893,0.2955,0.3047,0.3193,0.3207,0.3282,0.3343,0.3411,0.3523,0.3413,0.3418,0.3452,0.3701,0.3622,0.3636,0.353,0.3534,0.3537,0.3719,0,0.2332,0.2391,0.2411,0.2507,0.2563,0.2609,0.2695,0.2737,0.2774,0.283,0.2947,0.3041,0.3158,0.3194,0.3245,0.3369,0.337,0.3369,0.3336,0.341,0.3482,0.3501,0.327,0.327,0.327,0.327,0,0,0.2305,0.2371,0.2416,0.2468,0.2522,0.2565,0.2619,0.2671,0.2757,0.2799,0.2787,0.2983,0.3046,0.32,0.3238,0.3268,0.3308,0.3235,0.3376,0.3387,0.3398,0.3469,0.3487,0.327,0.327,0.327,0.327,0,0.2332,0.237,0.2401,0.2453,0.2522,0.2574,0.258,0.265,0.2684,0.2766,0.283,0.291,0.3013,0.3105,0.3167,0.3257,0.3266,0.3272,0.3287,0.3372,0.3383,0.3394,0.3465,0.3482,0.327,0.327,0.327,0,0.2339,0.2394,0.2412,0.2492,0.2535,0.2593,0.2604,0.2642,0.2698,0.2738,0.2813,0.2872,0.2974,0.3066,0.3104,0.3088,0.3231,0.3173,0.3176,0.3179,0.3266,0.328,0.3292,0.3131,0.313,0.313,0,0,0.2358,0.2394,0.2472,0.2503,0.2527,0.2589,0.2618,0.2647,0.2712,0.2735,0.2782,0.2855,0.2947,0.298,0.3052,0.3117,0.3157,0.3152,0.3158,0.3163,0.3169,0.3257,0.3271,0.3126,0.3126,0.3126,0,0,0.2365,0.2451,0.2475,0.2515,0.2569,0.2646,0.2663,0.2688,0.2747,0.2747,0.2804,0.2821,0.2903,0.2934,0.2887,0.3033,0.3013,0.3023,0.2991,0.3,0.3007,0.2995,0.2881,0,0,0,0,0,0.2427,0.2442,0.2463,0.2479,0.2575,0.2638,0.2651,0.2697,0.2697,0.2708,0.2775,0.2767,0.2941,0.2899,0.2911,0.2938,0.3082,0.309,0.3097,0.3074,0.3083,0.3091,0,0,0,0,0,0,0.2434,0.2453,0.2463,0.2539,0.2562,0.2637,0.2656,0.2669,0.2696,0.2699,0.276,0.277,0.2809,0.2893,0.2904,0.2929,0.2878,0.3085,0.3092,0.3098,0.3077,0.3084,0.3091,0,0,0,0,0,0.244,0.2455,0.2594,0.254,0.2559,0.2628,0.2655,0.2666,0.2683,0.2753,0.2763,0.2714,0.2808,0.2821,0.2899,0.2924,0.287,0.2874,0.309,0.3095,0.31,0.3081,0,0,0,0,0,0,0.2444,0.2464,0.2599,0.2608,0.2532,0.2624,0.2639,0.2663,0.2734,0.2746,0.271,0.2711,0.2808,0.2818,0.2827,0.2922,0.2864,0.2868,0.287,0.3094,0.3098,0.3101,0,0,0,0,0,0,0.2456,0.247,0.2603,0.2591,0.2598,0.2621,0.2634,0.2678,0.2734,0.2687,0.2691,0.2709,0.2792,0.2816,0.2823,0.2892,0.2859,0.2863,0.2866,0.2867,0.3097,0.31,0,0,0,0,0,0,0.2463,0.2475,0.2589,0.2595,0.2601,0.2695,0.2661,0.2752,0.2735,0.2682,0.2734,0.2733,0.2789,0.2798,0.2821,0.2886,0.289,0.2859,0.2862,0.2864,0.2865,0,0,0,0,0,0,0,0.2469,0.2374,0.2553,0.2597,0.2603,0.2685,0.2687,0.2689,0.2734,0.2734,0.2734,0.2733,0.2836,0.284,0.2845,0.2881,0,0,0.2858,0.286,0,0,0,0,0,0,0,0,0.2371,0.2373,0.2554,0.2555,0.2557,0.2685,0.2687,0.2688,0.2734,0.2734,0.2734,0.2733,0.2837,0.284,0.2844,0,0,0,0,0,0,0,0,0,0,0,0,0,0,0,0.2554,0.2555,0,0.2685,0.2687,0.2688,0.2734,0.2734,0.2734,0.2734,0.2838,0.2841,0.2844,0,0,0,0,0,0,0,0,0,0,0,0,0,0,0,0,0,0,0,0,0,0,0,0,0,0,0,0,0,0,0,0,0,0,0,0,0,0,0,0,0,0,0,0,0,0,0,0,0,0,0,0,0,0,0,0,0,0,0,0,0,0,0,0,0,0,0,0,0]}],[{"header":{"parameterUnit":"kt","parameterCategory":2,"dx":1,"dy":1,"la1":30.253999710083008,"la2":30.299108505249023,"lo1":-89.0895004272461,"lo2":-89.04439544677734,"nx":28,"ny":28,"refTime":"2022-09-20T15:00:00:Z","depth":"2","parameterNumber":3,"parameterNumberName":"V-component_of_CURRENTS"},"data":[0.0,0.0151,0.0221,0.0563,0.0693,0.1005,0.122,0.1582,0.1696,0.1854,0.1717,0.1469,0.0685,0.0148,-0.0363,-0.0644,-0.0698,-0.0696,-0.0575,-0.06,-0.059,-0.097,-0.0906,0,0,0,0,0,-0.0098,-0.0021,0.0068,0.0283,0.0458,0.0479,0.0779,0.1026,0.1483,0.1565,0.1808,0.1196,0.0765,0.022,-0.0454,-0.0837,-0.0913,-0.0907,-0.0976,-0.0974,-0.0971,-0.093,-0.0999,-0.0999,-0.0999,-0.0999,0,0,-0.0209,-0.0168,-0.004,0.0083,0.0186,0.04,0.0565,0.0786,0.1067,0.1412,0.14,0.1445,0.0855,0.0175,-0.0174,-0.0604,-0.0635,-0.0866,-0.0868,-0.0869,-0.0822,-0.075,-0.0862,-0.0861,-0.086,-0.086,-0.0859,0,-0.0217,-0.017,-0.0132,-0.0003,0.0087,0.0186,0.0328,0.0446,0.0591,0.0764,0.106,0.1131,0.0813,0.0451,-0.0059,-0.0307,-0.0684,-0.0733,-0.0637,-0.0887,-0.0818,-0.081,-0.0793,-0.0952,-0.0952,-0.0951,-0.0951,-0.0951,-0.0144,-0.0148,-0.0067,-0.0016,0.0013,0.0072,0.0146,0.02,0.0304,0.0481,0.0576,0.0556,0.0619,0.031,-0.01,-0.045,-0.0463,-0.0717,-0.0816,-0.0677,-0.067,-0.0655,-0.0641,-0.0947,-0.0947,-0.0948,-0.0948,0,-0.0086,-0.0056,-0.0061,-0.0012,0.0018,0.0033,0.0129,0.0174,0.0209,0.0319,0.0325,0.0312,0.0244,0.0014,-0.0224,-0.0422,-0.0604,-0.0651,-0.0647,-0.0654,-0.0657,-0.0641,-0.0795,-0.0794,-0.0793,-0.0792,-0.0791,0,0.0008,-0.0014,0.0049,0.0028,0.005,0.0046,0.0075,0.0064,0.0098,0.0178,0.0073,0.0149,-0.0112,-0.0185,-0.0356,-0.0496,-0.0543,-0.0649,-0.0657,-0.0703,-0.0697,-0.0722,-0.0715,-0.0775,-0.0774,-0.0774,-0.0773,0,0.0053,0.0067,0.0054,0.0043,0.0038,0.0038,0.0044,0.0025,0.0047,0.0006,0.006,-0.0101,-0.0089,-0.0284,-0.0357,-0.0383,-0.0522,-0.0577,-0.062,-0.0613,-0.0766,-0.0766,-0.0772,-0.0772,-0.0771,-0.0771,-0.0771,0,0.0096,0.0094,0.0087,0.0061,0.0057,0.0064,0.0024,0.0025,-0.0007,-0.0,-0.0058,-0.008,-0.017,-0.0176,-0.0365,-0.0302,-0.0396,-0.0446,-0.0452,-0.0468,-0.0431,-0.0597,-0.0603,-0.0479,-0.0477,-0.0474,-0.0472,0,0.0093,0.0098,0.0091,0.0078,0.0056,0.0028,0.0024,-0.0006,-0.0008,-0.0014,-0.0073,-0.0079,-0.0119,-0.0107,-0.019,-0.0244,-0.0329,-0.0243,-0.0466,-0.0474,-0.0421,-0.0399,-0.0462,-0.0565,-0.0443,-0.0446,-0.0449,0,0.0074,0.0069,0.007,0.0048,0.0025,0.0019,0.0011,-0.0029,-0.0035,-0.0031,-0.0056,-0.0087,-0.0102,-0.0148,-0.017,-0.0233,-0.0276,-0.0257,-0.0265,-0.0313,-0.0444,-0.0366,-0.0378,-0.0304,-0.0308,-0.0311,-0.0426,0,0.0026,0.0024,0.0041,0.0019,0.0013,0.0018,-0.0011,-0.0006,-0.0006,-0.0029,-0.0049,-0.0077,-0.014,-0.0109,-0.0143,-0.0206,-0.0219,-0.0246,-0.0334,-0.0297,-0.0343,-0.036,-0.0194,-0.0197,-0.0199,-0.0201,0,0,-0.0021,-0.0021,-0.0031,-0.0026,-0.0046,-0.0064,-0.0065,-0.007,-0.0087,-0.011,-0.008,-0.0146,-0.0178,-0.0247,-0.0209,-0.0207,-0.0261,-0.0261,-0.0285,-0.0293,-0.0302,-0.0345,-0.0359,-0.0205,-0.0206,-0.0206,-0.0207,0,-0.0055,-0.006,-0.0042,-0.0053,-0.0065,-0.009,-0.008,-0.0094,-0.0102,-0.01,-0.0151,-0.0163,-0.0197,-0.0255,-0.0291,-0.0231,-0.0328,-0.0208,-0.021,-0.0298,-0.0303,-0.0309,-0.0351,-0.0363,-0.0212,-0.0212,-0.0212,0,-0.0111,-0.0128,-0.0121,-0.0131,-0.0142,-0.0146,-0.0176,-0.0159,-0.0169,-0.0238,-0.024,-0.0258,-0.0331,-0.0332,-0.0339,-0.0378,-0.0411,-0.037,-0.0359,-0.0429,-0.0529,-0.0532,-0.0536,-0.0504,-0.0504,-0.0505,0,0,-0.0141,-0.0132,-0.0165,-0.0144,-0.0146,-0.0177,-0.0176,-0.0191,-0.0216,-0.0222,-0.0262,-0.0308,-0.0342,-0.0367,-0.04,-0.0413,-0.0502,-0.0401,-0.0387,-0.0376,-0.0437,-0.0533,-0.0535,-0.0507,-0.0507,-0.0507,0,0,-0.0156,-0.0188,-0.0209,-0.0187,-0.0199,-0.0231,-0.0213,-0.0233,-0.025,-0.025,-0.0329,-0.0346,-0.0347,-0.0403,-0.0421,-0.0422,-0.0483,-0.0481,-0.0382,-0.0366,-0.0353,-0.0418,-0.0501,0,0,0,0,0,-0.0216,-0.0186,-0.0205,-0.0207,-0.0227,-0.0226,-0.0229,-0.0252,-0.0266,-0.0246,-0.029,-0.0347,-0.042,-0.0438,-0.0454,-0.0425,-0.0534,-0.0529,-0.0525,-0.0399,-0.0382,-0.0367,0,0,0,0,0,0,-0.0217,-0.0219,-0.0206,-0.0238,-0.0243,-0.0227,-0.0269,-0.0275,-0.0268,-0.0271,-0.0335,-0.035,-0.0406,-0.0435,-0.0449,-0.0419,-0.0497,-0.0532,-0.0528,-0.0524,-0.0393,-0.0379,-0.0366,0,0,0,0,0,-0.0218,-0.022,-0.0242,-0.0239,-0.0243,-0.0271,-0.0269,-0.0274,-0.0264,-0.0346,-0.0358,-0.0278,-0.0405,-0.042,-0.0444,-0.041,-0.0488,-0.0492,-0.0529,-0.0526,-0.0523,-0.0386,0,0,0,0,0,0,-0.0219,-0.0225,-0.0244,-0.0247,-0.0243,-0.0271,-0.0275,-0.0274,-0.034,-0.035,-0.0296,-0.0298,-0.0404,-0.0416,-0.0427,-0.0402,-0.0481,-0.0485,-0.0488,-0.0527,-0.0525,-0.0522,0,0,0,0,0,0,-0.0225,-0.0227,-0.0245,-0.0249,-0.0252,-0.0272,-0.0275,-0.0323,-0.0343,-0.0287,-0.029,-0.0296,-0.0407,-0.0413,-0.0422,-0.0494,-0.0475,-0.048,-0.0483,-0.0485,-0.0525,-0.0523,0,0,0,0,0,0,-0.0227,-0.0229,-0.0248,-0.0251,-0.0254,-0.0285,-0.0318,-0.0348,-0.0306,-0.0285,-0.0307,-0.0308,-0.0405,-0.0414,-0.0418,-0.0486,-0.0492,-0.0475,-0.0478,-0.0481,-0.0482,0,0,0,0,0,0,0,-0.0228,-0.0205,-0.0229,-0.0252,-0.0255,-0.0273,-0.0273,-0.0274,-0.0306,-0.0306,-0.0307,-0.0308,-0.0449,-0.0454,-0.0459,-0.0479,0,0,-0.0475,-0.0477,0,0,0,0,0,0,0,0,-0.0206,-0.0205,-0.0229,-0.023,-0.0231,-0.0273,-0.0273,-0.0274,-0.0306,-0.0306,-0.0307,-0.0307,-0.045,-0.0454,-0.0458,0,0,0,0,0,0,0,0,0,0,0,0,0,0,0,-0.0229,-0.023,0,-0.0273,-0.0273,-0.0274,-0.0306,-0.0306,-0.0307,-0.0307,-0.0451,-0.0454,-0.0458,0,0,0,0,0,0,0,0,0,0,0,0,0,0,0,0,0,0,0,0,0,0,0,0,0,0,0,0,0,0,0,0,0,0,0,0,0,0,0,0,0,0,0,0,0,0,0,0,0,0,0,0,0,0,0,0,0,0,0,0,0,0,0,0,0,0,0,0,0]}]],[[{"header":{"parameterUnit":"kt","parameterCategory":2,"dx":1,"dy":1,"la1":30.253999710083008,"la2":30.299108505249023,"lo1":-89.0895004272461,"lo2":-89.04439544677734,"nx":28,"ny":28,"refTime":"2022-09-20T15:00:00:Z","depth":"4","parameterNumber":2,"parameterNumberName":"U-component_of_CURRENTS"},"data":[-0.0041,0.001,0.0075,0.0191,0.0272,0.0389,0.0474,0.0566,0.0612,0.0779,0.081,0.0963,0.1019,0.1062,0.1113,0.1133,0.1091,0.1288,0.1287,0.1233,0.1232,0.1231,0.1287,0,0,0,0,0,-0.0008,0.0024,0.011,0.0242,0.0358,0.0439,0.0581,0.0666,0.0836,0.0863,0.0988,0.1008,0.1092,0.1128,0.1137,0.12,0.1205,0.1209,0.1157,0.1233,0.1231,0.1286,0,0,0,0,0,0,0.005,0.0076,0.0166,0.029,0.0417,0.0506,0.0597,0.0725,0.0844,0.107,0.1043,0.1164,0.1255,0.1284,0.1238,0.1257,0.1227,0.1191,0.1192,0.1191,0.1228,0.1233,0.118,0,0,0,0,0,0.0111,0.0159,0.0227,0.0358,0.0476,0.0595,0.0759,0.0815,0.1023,0.116,0.1229,0.1297,0.132,0.1323,0.1341,0.1255,0.1301,0.1268,0.1266,0.1254,0.1259,0.1259,0.1263,0.1226,0.1226,0.1225,0.1225,0,0.0192,0.0209,0.0373,0.0438,0.0537,0.0696,0.0797,0.1007,0.1087,0.128,0.1288,0.1399,0.1447,0.1377,0.1382,0.1315,0.129,0.1265,0.1253,0.1257,0.1257,0.1261,0.1265,0.1224,0.1224,0.1224,0.1224,0,0.0226,0.032,0.04,0.0572,0.064,0.0724,0.0956,0.1036,0.121,0.131,0.1366,0.1482,0.1488,0.1493,0.143,0.1385,0.1312,0.1278,0.1289,0.1288,0.126,0.1265,0.1222,0.1223,0.1223,0.1223,0.1224,0,0.0332,0.0384,0.0546,0.0579,0.0681,0.082,0.0948,0.1057,0.1211,0.1278,0.1409,0.1441,0.1482,0.1471,0.1411,0.1353,0.1347,0.1288,0.1283,0.1293,0.1297,0.1265,0.1265,0.1263,0.1263,0.1264,0.1264,0,0.0389,0.0514,0.0571,0.0618,0.0777,0.085,0.0951,0.1083,0.1161,0.1302,0.1391,0.1408,0.1462,0.1418,0.1398,0.1405,0.1343,0.1335,0.1296,0.1297,0.1268,0.1268,0.1265,0.1265,0.1265,0.1265,0.1266,0,0.0491,0.0553,0.0615,0.0763,0.0798,0.0859,0.1004,0.1069,0.118,0.1266,0.1336,0.1388,0.1394,0.1411,0.1361,0.1402,0.1371,0.1346,0.1343,0.1339,0.1343,0.1286,0.1307,0.1308,0.1309,0.1309,0.131,0,0.0539,0.0601,0.0678,0.0754,0.0804,0.0919,0.0973,0.1053,0.1153,0.1248,0.1263,0.1334,0.133,0.1398,0.1382,0.1373,0.1349,0.1375,0.1329,0.1325,0.134,0.1363,0.1392,0.1319,0.1318,0.1317,0.1317,0,0.0566,0.07,0.0711,0.077,0.0883,0.0919,0.0986,0.1055,0.1129,0.1216,0.1292,0.1289,0.1353,0.1343,0.1357,0.1353,0.1357,0.1382,0.138,0.1345,0.1344,0.137,0.1367,0.1395,0.1394,0.1394,0.1323,0,0.066,0.0719,0.074,0.0818,0.0869,0.0917,0.0991,0.1067,0.1174,0.1208,0.1285,0.1292,0.1335,0.135,0.1341,0.1349,0.1357,0.1358,0.1339,0.1365,0.1332,0.1327,0.1368,0.1367,0.1366,0.1365,0,0,0.068,0.072,0.0789,0.0826,0.0876,0.0972,0.1007,0.1033,0.113,0.1167,0.1224,0.1292,0.1303,0.1283,0.1292,0.1309,0.1314,0.1342,0.1361,0.1361,0.136,0.1329,0.1326,0.1364,0.1364,0.1363,0.1363,0,0.0691,0.0761,0.0781,0.0828,0.0917,0.0937,0.0993,0.1065,0.1101,0.1182,0.1183,0.1232,0.1304,0.1259,0.125,0.13,0.1301,0.1344,0.1367,0.1355,0.1356,0.1356,0.1327,0.1324,0.1361,0.1361,0.1361,0,0.0714,0.0764,0.0783,0.0851,0.0884,0.0913,0.0956,0.1015,0.1043,0.1068,0.1151,0.1176,0.1164,0.119,0.1227,0.1222,0.1281,0.1291,0.1295,0.1272,0.1256,0.1258,0.126,0.1235,0.1235,0.1234,0,0,0.0726,0.076,0.0824,0.0855,0.0889,0.0938,0.0967,0.0994,0.1032,0.1054,0.1109,0.1145,0.1145,0.1188,0.1184,0.1245,0.1214,0.1277,0.1283,0.1288,0.1268,0.1254,0.1256,0.1233,0.1233,0.1233,0,0,0.0713,0.0784,0.0823,0.0858,0.0902,0.0904,0.0929,0.0982,0.1018,0.1047,0.1065,0.1076,0.1146,0.1154,0.1137,0.1194,0.1167,0.1172,0.1198,0.1206,0.1212,0.1179,0.1104,0,0,0,0,0,0.0764,0.0779,0.0815,0.0831,0.087,0.0894,0.0894,0.0921,0.0983,0.0994,0.1034,0.1044,0.1115,0.1099,0.1111,0.1153,0.1219,0.1221,0.1224,0.127,0.1278,0.1284,0,0,0,0,0,0,0.077,0.0786,0.0815,0.0823,0.0835,0.0891,0.0888,0.0891,0.098,0.0985,0.103,0.104,0.1009,0.1095,0.1105,0.1145,0.1101,0.122,0.1222,0.1224,0.1272,0.1279,0.1284,0,0,0,0,0,0.0776,0.0788,0.0857,0.082,0.083,0.0875,0.0888,0.0891,0.0958,0.096,0.0972,0.0998,0.1006,0.102,0.1101,0.1141,0.1094,0.1098,0.1221,0.1223,0.1224,0.1276,0,0,0,0,0,0,0.078,0.0744,0.0858,0.0861,0.0847,0.0872,0.0878,0.0891,0.0929,0.0942,0.092,0.0923,0.1003,0.1015,0.1026,0.1139,0.1089,0.1093,0.1095,0.1222,0.1224,0.1225,0,0,0,0,0,0,0.074,0.0746,0.0858,0.089,0.0896,0.087,0.0876,0.0908,0.0932,0.0882,0.0888,0.0922,0.1041,0.1011,0.102,0.1063,0.1085,0.1088,0.1091,0.1092,0.1224,0.1225,0,0,0,0,0,0,0.0742,0.0747,0.0888,0.0892,0.0897,0.0917,0.09,0.0958,0.0902,0.088,0.0909,0.0912,0.104,0.1046,0.1015,0.1053,0.106,0.1085,0.1087,0.1089,0.109,0,0,0,0,0,0,0,0.0744,0.0712,0.0867,0.0894,0.0898,0.0898,0.0896,0.0894,0.0903,0.0905,0.0908,0.091,0.1065,0.1069,0.1072,0.1046,0,0,0.1084,0.1086,0,0,0,0,0,0,0,0,0.071,0.0712,0.0867,0.0869,0.0871,0.0897,0.0896,0.0894,0.0903,0.0905,0.0907,0.0909,0.1066,0.1069,0.1072,0,0,0,0,0,0,0,0,0,0,0,0,0,0,0,0.0867,0.0869,0,0.0897,0.0896,0.0895,0.0904,0.0905,0.0907,0.0909,0.1067,0.1069,0.1072,0,0,0,0,0,0,0,0,0,0,0,0,0,0,0,0,0,0,0,0,0,0,0,0,0,0,0,0,0,0,0,0,0,0,0,0,0,0,0,0,0,0,0,0,0,0,0,0,0,0,0,0,0,0,0,0,0,0,0,0,0,0,0,0,0,0,0,0,0]}],[{"header":{"parameterUnit":"kt","parameterCategory":2,"dx":1,"dy":1,"la1":30.253999710083008,"la2":30.299108505249023,"lo1":-89.0895004272461,"lo2":-89.04439544677734,"nx":28,"ny":28,"refTime":"2022-09-20T15:00:00:Z","depth":"4","parameterNumber":3,"parameterNumberName":"V-component_of_CURRENTS"},"data":[0.0095,0.0102,0.0121,0.0094,0.0093,0.0106,0.0127,0.0129,0.012,0.0092,-0.0003,-0.0055,-0.0246,-0.0178,-0.0447,-0.0488,-0.054,-0.0762,-0.0763,-0.0847,-0.0848,-0.0848,-0.0988,0,0,0,0,0,0.0149,0.0119,0.0153,0.0131,0.0171,0.0156,0.0174,0.0171,0.0133,0.0123,0.0063,-0.0036,-0.0237,-0.0341,-0.0443,-0.0541,-0.07,-0.0665,-0.0731,-0.0847,-0.0848,-0.0983,0,0,0,0,0,0,0.0167,0.0187,0.0162,0.016,0.0171,0.0167,0.0171,0.0129,0.0104,0.002,0.0015,-0.0149,-0.0246,-0.0428,-0.0519,-0.0629,-0.0661,-0.0681,-0.0691,-0.0693,-0.0774,-0.0734,-0.0569,0,0,0,0,0,0.0144,0.0123,0.0148,0.0148,0.0123,0.0137,0.0088,0.0093,0.0001,-0.0038,-0.0098,-0.0225,-0.0325,-0.0492,-0.0595,-0.0683,-0.0828,-0.0826,-0.0827,-0.0945,-0.0926,-0.0948,-0.0959,-0.0852,-0.0852,-0.0852,-0.0852,0,0.0042,0.0077,0.0081,0.0082,0.0061,0.0034,0.0008,-0.0076,-0.0098,-0.0189,-0.0194,-0.0318,-0.0429,-0.0523,-0.0705,-0.0796,-0.0858,-0.0828,-0.0954,-0.0929,-0.0948,-0.0959,-0.0971,-0.0853,-0.0853,-0.0853,-0.0853,0,-0.0024,-0.0034,0.0022,0.0001,-0.0019,-0.0022,-0.009,-0.0114,-0.0213,-0.0252,-0.0299,-0.0451,-0.0551,-0.0679,-0.0787,-0.0851,-0.0909,-0.0925,-0.0918,-0.0934,-0.0965,-0.0977,-0.0854,-0.0854,-0.0854,-0.0853,-0.0853,0,-0.0117,-0.0088,-0.011,-0.008,-0.0065,-0.0115,-0.0143,-0.0209,-0.0298,-0.0323,-0.0493,-0.055,-0.0742,-0.0802,-0.0901,-0.0964,-0.0939,-0.1054,-0.1061,-0.1126,-0.1135,-0.1033,-0.1033,-0.1054,-0.1056,-0.1057,-0.1059,0,-0.0185,-0.0179,-0.0134,-0.0132,-0.0139,-0.0166,-0.0207,-0.0296,-0.0332,-0.0473,-0.0539,-0.0655,-0.0766,-0.0826,-0.0995,-0.1036,-0.1033,-0.1088,-0.1101,-0.11,-0.1041,-0.1038,-0.106,-0.1061,-0.1061,-0.1062,-0.1062,0,-0.0258,-0.0232,-0.0195,-0.0179,-0.0187,-0.0213,-0.0263,-0.0312,-0.0424,-0.0531,-0.0655,-0.0781,-0.0887,-0.1027,-0.1082,-0.1129,-0.117,-0.1223,-0.1218,-0.1147,-0.1188,-0.1047,-0.1147,-0.1149,-0.115,-0.1152,-0.1153,0,-0.0279,-0.0252,-0.0271,-0.0265,-0.0243,-0.0314,-0.0349,-0.0414,-0.0534,-0.0634,-0.0782,-0.0908,-0.1036,-0.115,-0.1207,-0.1287,-0.1283,-0.1351,-0.1186,-0.1177,-0.1168,-0.126,-0.1374,-0.1176,-0.1173,-0.1171,-0.117,0,-0.0292,-0.0296,-0.0312,-0.029,-0.0347,-0.0369,-0.0428,-0.0474,-0.0516,-0.0715,-0.0775,-0.0983,-0.109,-0.1108,-0.1211,-0.1252,-0.1309,-0.1282,-0.1278,-0.1165,-0.1249,-0.128,-0.1269,-0.138,-0.1379,-0.1378,-0.1185,0,-0.0248,-0.0273,-0.0302,-0.0319,-0.0356,-0.0396,-0.0455,-0.0544,-0.0667,-0.0719,-0.0879,-0.1012,-0.1087,-0.12,-0.1226,-0.1291,-0.1241,-0.1271,-0.1148,-0.1253,-0.1158,-0.1146,-0.1231,-0.1228,-0.1225,-0.1222,0,0,-0.0238,-0.025,-0.0311,-0.0324,-0.0344,-0.0438,-0.0445,-0.0502,-0.0625,-0.066,-0.0758,-0.094,-0.1013,-0.105,-0.1133,-0.1187,-0.114,-0.1115,-0.123,-0.1232,-0.1233,-0.1147,-0.1139,-0.1217,-0.1216,-0.1215,-0.1215,0,-0.0197,-0.0264,-0.0285,-0.0317,-0.039,-0.0404,-0.0451,-0.0535,-0.0584,-0.0704,-0.0729,-0.0861,-0.0967,-0.0971,-0.0983,-0.1145,-0.1053,-0.121,-0.1208,-0.1209,-0.1215,-0.1219,-0.1137,-0.1132,-0.1208,-0.1208,-0.1208,0,-0.0157,-0.0188,-0.0217,-0.0282,-0.0325,-0.0343,-0.0381,-0.0461,-0.0486,-0.0508,-0.0615,-0.0703,-0.0709,-0.0809,-0.0864,-0.0807,-0.0928,-0.0949,-0.0964,-0.0863,-0.0852,-0.0862,-0.087,-0.075,-0.0749,-0.0748,0,0,-0.0124,-0.0164,-0.0211,-0.0277,-0.0305,-0.0357,-0.04,-0.0422,-0.0475,-0.0505,-0.0562,-0.061,-0.0661,-0.0696,-0.0733,-0.0827,-0.0732,-0.0896,-0.0918,-0.0936,-0.0848,-0.0841,-0.0851,-0.0744,-0.0743,-0.0743,0,0,-0.0106,-0.015,-0.017,-0.0235,-0.0287,-0.0315,-0.0366,-0.0403,-0.0465,-0.0486,-0.0486,-0.0494,-0.0623,-0.0599,-0.0541,-0.0711,-0.0618,-0.063,-0.073,-0.0756,-0.0777,-0.0657,-0.0459,0,0,0,0,0,-0.0096,-0.0142,-0.0161,-0.0179,-0.0252,-0.0308,-0.0317,-0.0347,-0.0384,-0.0416,-0.0462,-0.0429,-0.0558,-0.0505,-0.0514,-0.061,-0.0685,-0.0695,-0.0705,-0.0857,-0.0885,-0.0909,0,0,0,0,0,0,-0.0103,-0.0122,-0.016,-0.0189,-0.0208,-0.0304,-0.0281,-0.0288,-0.0379,-0.0382,-0.0422,-0.0426,-0.0391,-0.0498,-0.0507,-0.0599,-0.0456,-0.0689,-0.0698,-0.0706,-0.0866,-0.0889,-0.0909,0,0,0,0,0,-0.0109,-0.0124,-0.0237,-0.0188,-0.0204,-0.0259,-0.0279,-0.0286,-0.036,-0.0353,-0.036,-0.0395,-0.039,-0.0401,-0.0503,-0.0597,-0.0449,-0.0453,-0.0695,-0.0702,-0.0708,-0.0878,0,0,0,0,0,0,-0.0114,-0.0106,-0.024,-0.0247,-0.019,-0.0255,-0.0265,-0.0284,-0.0326,-0.0336,-0.0317,-0.0318,-0.0389,-0.0398,-0.0407,-0.0599,-0.0444,-0.0447,-0.045,-0.07,-0.0705,-0.071,0,0,0,0,0,0,-0.01,-0.0111,-0.0243,-0.0243,-0.0249,-0.0251,-0.026,-0.0298,-0.0326,-0.0284,-0.0288,-0.0317,-0.0395,-0.0396,-0.0403,-0.0458,-0.044,-0.0443,-0.0445,-0.0447,-0.0704,-0.0709,0,0,0,0,0,0,-0.0105,-0.0115,-0.024,-0.0245,-0.025,-0.0314,-0.0284,-0.0361,-0.0319,-0.0281,-0.032,-0.032,-0.0394,-0.04,-0.04,-0.0452,-0.0457,-0.044,-0.0442,-0.0444,-0.0445,0,0,0,0,0,0,0,-0.0109,-0.004,-0.0218,-0.0247,-0.0251,-0.031,-0.031,-0.0311,-0.032,-0.032,-0.032,-0.032,-0.042,-0.0424,-0.0427,-0.0447,0,0,-0.0439,-0.0441,0,0,0,0,0,0,0,0,-0.0037,-0.0039,-0.0219,-0.0221,-0.0223,-0.031,-0.031,-0.0311,-0.032,-0.032,-0.032,-0.032,-0.0421,-0.0424,-0.0427,0,0,0,0,0,0,0,0,0,0,0,0,0,0,0,-0.0219,-0.0221,0,-0.031,-0.031,-0.0311,-0.032,-0.032,-0.032,-0.032,-0.0422,-0.0424,-0.0427,0,0,0,0,0,0,0,0,0,0,0,0,0,0,0,0,0,0,0,0,0,0,0,0,0,0,0,0,0,0,0,0,0,0,0,0,0,0,0,0,0,0,0,0,0,0,0,0,0,0,0,0,0,0,0,0,0,0,0,0,0,0,0,0,0,0,0,0,0]}]]]